#timestamp,LO_Frequency,Hit,StdDev 
1652860815.5,286046993.7,N
1652860835.3,286046992.2,Y
1652860855.2,286047001.2,P
1652860875.0,286047000.7,N
1652860875.9,286047000.7,N
1652860895.8,286046998.7,N
1652860915.6,286046998.9,N
1652860935.4,286046999.6,N
1652860955.3,286046997.6,N
1652860975.1,286046996.3,N
1652860995.8,286046992.2,Y
1652861015.7,286046992.7,P
1652861035.5,286046991.0,P
1652861055.4,286046989.1,P
1652861075.2,286046988.9,Y
1652861095.0,286046997.8,P
1652861095.9,286046997.8,N
1652861115.8,286046997.6,N
1652861135.6,286046997.6,N
1652861155.4,286047000.6,N
1652861175.3,286046997.5,N
1652861195.1,286046994.6,N
1652861215.9,286046988.5,Y
1652861235.7,286046988.6,P
1652861255.5,286046990.0,N
1652861275.4,286046987.7,P
1652861295.2,286046987.8,Y
1652861315.1,286046997.6,P
1652861316.0,286046997.6,N
1652861335.8,286047001.0,N
1652861355.6,286047000.0,N
1652861375.5,286047004.0,N
1652861395.3,286047000.6,N
1652861415.1,286046996.6,N
1652861435.9,286046993.3,N
1652861455.7,286046995.7,N
1652861475.6,286046992.8,N
1652861495.4,286046989.5,N
1652861515.2,286046987.7,N
1652861535.1,286046986.3,N
1652861536.0,286046986.3,N
1652861555.8,286046982.7,Y
1652861575.6,286046986.7,P
1652861595.5,286046986.0,P
1652861615.3,286046984.4,P
1652861635.2,286046981.3,Y
1652861655.9,286046991.9,P
1652861675.7,286046990.2,P
1652861695.6,286046993.7,P
1652861715.4,286046991.9,Y
1652861735.2,286046998.8,P
1652861755.1,286046999.6,N
1652861756.0,286046999.6,N
1652861775.8,286046996.5,N
1652861795.7,286046997.8,N
1652861815.5,286047001.6,N
1652861835.3,286047001.5,N
1652861855.2,286047003.0,N
1652861875.0,286047007.9,N
1652861875.9,286047007.9,N
1652861895.7,286047009.4,N
1652861915.6,286047011.9,N
1652861935.4,286047012.5,N
1652861955.3,286047010.2,N
1652861975.1,286047007.3,N
1652861995.8,286047005.2,N
1652862015.7,286047001.3,N
1652862035.5,286046999.2,N
1652862055.4,286046994.5,N
1652862075.2,286046989.3,N
1652862095.0,286046985.7,N
1652862095.9,286046985.7,N
1652862115.8,286046982.1,N
1652862135.6,286046980.7,N
1652862155.4,286046982.0,N
1652862175.3,286046977.9,N
1652862195.1,286046978.8,N
1652862215.9,286046975.1,N
1652862235.7,286046972.9,N
1652862255.5,286046972.2,N
1652862275.4,286046971.4,N
1652862295.2,286046972.0,N
1652862315.1,286046968.0,N
1652862316.0,286046968.0,N
1652862335.8,286046968.8,N
1652862355.6,286046970.8,N
1652862375.5,286046966.5,N
1652862395.3,286046967.1,N
1652862415.1,286046964.7,N
1652862435.9,286046965.4,N
1652862455.7,286046967.4,N
1652862475.6,286046966.0,N
1652862495.4,286046963.4,N
1652862515.2,286046971.6,N
1652862535.1,286046977.0,N
1652862536.0,286046977.0,N
1652862555.8,286046971.5,N
1652862575.6,286046973.7,N
1652862595.5,286046972.8,Y
1652862615.3,286046999.3,P
1652862635.2,286046995.7,N
1652862655.9,286046990.2,N
1652862675.7,286046985.6,N
1652862695.6,286046982.8,N
1652862715.4,286046980.3,N
1652862735.3,286046979.7,N
1652862755.1,286046975.7,Y
1652862756.0,286046975.7,P
1652862775.8,286046989.1,N
1652862795.7,286046987.2,N
1652862815.5,286046985.7,N
1652862835.4,286046986.4,N
1652862855.2,286046985.4,Y
1652862875.0,286046999.9,P
1652862875.9,286046999.9,N
1652862895.8,286046998.1,N
1652862915.6,286046996.9,N
1652862935.5,286046997.1,N
1652862955.3,286047002.7,N
1652862975.1,286047002.6,N
1652862995.9,286047002.8,N
1652863015.7,286047004.0,N
1652863035.6,286047010.3,N
1652863055.4,286047010.8,N
1652863075.2,286047009.9,N
1652863095.1,286047013.5,N
1652863096.0,286047013.5,N
1652863115.8,286047015.5,N
1652863135.7,286047015.4,N
1652863155.5,286047011.8,N
1652863175.3,286047006.2,N
1652863195.2,286047010.7,N
1652863215.0,286047009.0,N
1652863215.9,286047009.0,N
1652863235.8,286047009.1,N
1652863255.6,286047005.0,N
1652863275.4,286047007.4,N
1652863295.3,286047006.0,N
1652863315.1,286046999.9,N
1652863335.8,286046999.3,N
1652863355.7,286046992.7,N
1652863375.5,286046987.2,N
1652863395.3,286046987.7,N
1652863415.2,286046991.2,N
1652863435.0,286046990.9,N
1652863435.9,286046990.9,N
1652863455.8,286046988.5,N
1652863475.6,286046991.5,N
1652863495.4,286046997.3,N
1652863515.3,286047001.4,N
1652863535.1,286047005.0,N
1652863555.8,286047004.0,N
1652863575.7,286046996.7,N
1652863595.5,286046993.3,N
1652863615.4,286046996.8,N
1652863635.2,286046997.6,N
1652863655.0,286046999.3,N
1652863655.9,286046999.3,N
1652863675.8,286046995.4,N
1652863695.6,286046993.2,N
1652863715.4,286046988.0,N
1652863735.3,286046979.8,N
1652863755.1,286046978.3,N
1652863775.9,286046979.1,N
1652863795.7,286046985.7,N
1652863815.5,286046988.7,N
1652863835.4,286046993.2,N
1652863855.2,286046989.3,N
1652863875.0,286046987.8,N
1652863875.9,286046987.8,N
1652863895.8,286046984.2,N
1652863915.6,286046983.4,N
1652863935.5,286046981.1,N
1652863955.3,286046986.3,N
1652863975.1,286046978.1,Y
1652863995.9,286046983.0,P
1652864015.7,286046984.0,P
1652864035.6,286046982.0,P
1652864085.4,286046979.7,E
1652864095.3,286046986.8,N
1652864115.2,286046994.5,P
1652864135.0,286046995.7,N
1652864135.9,286046995.7,N
1652864155.8,286046996.6,N
1652864175.6,286046998.7,N
1652864195.5,286046999.9,N
1652864215.3,286046999.3,N
1652864235.1,286046997.5,N
1652864255.9,286046995.8,N
1652864275.7,286046991.5,N
1652864295.6,286046985.8,Y
1652864315.4,286046995.6,P
1652864335.2,286046997.5,P
1652864355.1,286046996.6,P
1652864356.0,286046996.6,Y
1652864375.8,286047000.8,P
1652864395.7,286046995.1,N
